Location: Unspecified
(0.0000°N, 0.0000°E)
Time: 08:10:52
(UTC+00:00)

Tiros 1 despin weight - Pass Details

Date: 10 October 2023
Orbit: 583 x 627 km, 48.2° (Epoch: 05 December)

Event Time Altitude Azimuth Distance (km) Brightness Sun altitude
Rises 01:16:17 0° 304° (NW) 2,790 - -66.9°
Reaches altitude 10° 01:18:44 10° 294° (WNW) 1,890 - -66.3°
Maximum altitude 01:22:34 31° 231° (SW) 1,024 - -65.3°
Drops below altitude 10° 01:26:26 10° 168° (SSE) 1,895 - -64.4°
Sets 01:28:54 0° 157° (SSE) 2,799 - -63.8°
